CDT,Max TemperatureF,Mean TemperatureF,Min TemperatureF,Max Dew PointF,MeanDew PointF,Min DewpointF,Max Humidity, Mean Humidity, Min Humidity, Max Sea Level PressureIn, Mean Sea Level PressureIn, Min Sea Level PressureIn, Max VisibilityMiles, Mean VisibilityMiles, Min VisibilityMiles, Max Wind SpeedMPH, Mean Wind SpeedMPH, Max Gust SpeedMPH,PrecipitationIn, CloudCover, Events, WindDirDegrees
2012-5-1,87,74,62,63,59,54,77,60,43,30.12,30.05,29.98,10,9,3,12,4,18,0.00,1,,145
2012-5-2,78,71,64,66,61,57,78,73,64,30.05,30.02,29.98,10,10,5,14,5,21,0.39,4,Thunderstorm,114
2012-5-3,84,75,66,66,63,59,83,70,51,30.06,30.03,29.99,10,10,7,10,4,20,0.00,5,,124
2012-5-4,86,78,71,66,64,63,78,67,51,30.10,30.04,29.99,10,9,5,12,5,,0.00,4,,124
2012-5-5,89,78,66,66,63,57,83,65,43,30.03,29.98,29.92,10,8,0,17,3,26,0.00,1,Thunderstorm,106
2012-5-6,89,76,62,66,60,55,78,64,40,30.01,29.96,29.90,10,8,0,15,2,26,0.00,,Thunderstorm,114
2012-5-7,87,74,60,64,58,54,77,66,40,29.98,29.93,29.89,10,7,0,7,2,,0.00,,,114
2012-5-8,,,,,,,,,,,,,,,,,,,,,,
2012-5-9,,,,,,,,,,,,,,,,,,,,,,
2012-5-10,80,68,57,52,47,45,67,52,28,29.99,29.95,29.93,10,10,9,8,3,,0.00,0,,20
2012-5-11,78,66,55,55,49,45,72,55,34,30.09,30.03,29.97,10,10,10,10,4,,0.00,1,,86
2012-5-12,78,70,62,64,59,52,78,69,60,30.09,30.05,30.00,10,9,2,14,5,26,0.49,5,Thunderstorm,140
2012-5-13,82,73,64,61,59,55,83,67,48,30.07,30.03,29.99,10,9,1,10,5,,0.04,5,,252
2012-5-14,80,71,62,59,56,54,77,61,42,30.07,30.01,29.96,10,8,2,10,4,16,0.00,3,,337
2012-5-15,84,72,60,61,55,52,73,57,35,30.05,30.01,29.97,10,10,5,10,3,18,0.00,1,,358
2012-5-16,84,73,62,59,56,54,77,59,37,30.06,30.01,29.96,10,10,7,10,3,,0.00,0,,29
2012-5-17,87,72,57,57,53,48,77,53,27,30.02,29.98,29.94,10,9,3,12,2,16,0.00,0,,9
2012-5-18,87,72,57,63,55,48,77,56,33,30.03,29.99,29.94,10,9,4,10,2,,0.23,1,Thunderstorm,75
2012-5-19,87,74,62,61,57,54,77,57,33,30.09,30.04,29.99,10,9,5,9,3,,0.13,1,,89
2012-5-20,87,73,59,57,53,46,77,52,24,30.14,30.08,30.04,10,10,5,12,3,18,0.00,0,,46
2012-5-21,91,74,57,59,55,50,77,54,31,30.11,30.05,29.98,10,10,5,16,3,22,0.00,0,,331
2012-5-22,87,74,62,61,54,50,77,53,27,30.02,29.96,29.89,10,9,4,13,4,17,0.00,0,,343
2012-5-23,89,73,57,63,55,48,72,52,33,29.92,29.87,29.81,10,10,10,9,2,,0.00,1,,158
2012-5-24,91,78,64,64,61,57,78,58,36,29.94,29.89,29.84,10,9,2,16,5,24,0.00,1,,180
2012-5-25,91,78,64,64,61,55,83,59,36,30.09,30.04,29.94,10,7,0,12,3,16,0.00,2,,147
2012-5-26,93,78,62,64,60,54,77,56,34,30.17,30.10,30.05,10,9,3,8,2,,0.00,0,,84
2012-5-27,96,81,66,64,62,57,78,54,30,30.08,30.01,29.94,10,9,5,10,2,,0.00,0,,44
2012-5-28,96,82,69,66,63,61,73,54,34,29.98,29.92,29.87,10,9,5,12,3,17,0.00,0,,14
2012-5-29,96,84,71,64,63,61,73,52,32,29.94,29.89,29.84,10,10,5,10,3,17,0.00,2,,291
2012-5-30,93,80,66,66,61,55,73,55,33,29.95,29.88,29.80,10,10,8,26,5,37,0.10,1,,249
2012-5-31,91,78,64,64,59,55,78,65,38,29.88,29.85,29.75,10,9,3,28,4,40,0.12,2,Thunderstorm,215